User: anonymous   Login
Location: Unspecified
(0.0000°N, 0.0000°E)
Time: 18:44:23
(UTC+00:00)
Language:

MUOS - Orbit

View from above orbital plane
View from above orbital plane
View from above satellite
View from above satellite

Ground track
Ground track

The orbit data is extracted from the following two-line orbital elements,

1 38093U 12009A   19084.13671774  .00000043  00000-0  00000+0 0  9999
2 38093   2.6958 352.9844 0051578 179.5975 241.8955  1.00269551 25975
Epoch (UTC): 25 March 2019 03:16:52
Eccentricity: 0.0051578
inclination: 2.6958°
perigee height: 35569 km
apogee height: 36004 km
right ascension of ascending node: 352.9844°
argument of perigee: 179.5975°
revolutions per day: 1.00269551
mean anomaly at epoch: 241.8955°
orbit number at epoch: 2597

The dashed part of the orbit path shows where the satellite is in the earth's shadow,  

DLR